Total_Precipitation_Accumulation
0.06 0.09 0.17 0.36 0.47 0.38 0.27 0.25 0.31 0.33 0.34 0.37 0.46 0.55 0.54 0.48 0.42 0.41 0.41 0.39 0.38 0.38 0.36 0.34 0.34 0.35 0.44 0.56 0.71 0.89 1.09 1.08 0.92 0.86 0.79 0.65 0.60 0.60 0.58 0.61 0.57 0.59 0.70 0.81
0.02 0.04 0.07 0.17 0.20 0.16 0.09 0.12 0.23 0.29 0.36 0.40 0.46 0.53 0.50 0.42 0.35 0.28 0.26 0.26 0.25 0.23 0.22 0.17 0.15 0.17 0.18 0.26 0.43 0.59 0.75 0.82 0.78 0.69 0.61 0.58 0.57 0.55 0.52 0.51 0.47 0.47 0.51 0.58
0.01 0.02 0.04 0.11 0.11 0.12 0.15 0.15 0.16 0.26 0.38 0.46 0.58 0.76 0.67 0.50 0.41 0.28 0.21 0.20 0.19 0.20 0.19 0.18 0.16 0.15 0.15 0.18 0.25 0.35 0.47 0.56 0.55 0.49 0.43 0.41 0.45 0.45 0.43 0.39 0.40 0.38 0.37 0.38
0.05 0.08 0.19 0.24 0.19 0.26 0.34 0.26 0.22 0.29 0.37 0.50 0.83 1.03 0.66 0.42 0.38 0.31 0.21 0.18 0.17 0.17 0.15 0.14 0.13 0.12 0.12 0.15 0.18 0.19 0.23 0.26 0.28 0.28 0.27 0.29 0.31 0.32 0.33 0.32 0.30 0.29 0.37 0.44
0.10 0.13 0.39 0.36 0.19 0.31 0.36 0.31 0.24 0.32 0.37 0.40 0.45 0.41 0.25 0.15 0.16 0.18 0.13 0.10 0.08 0.08 0.06 0.05 0.05 0.04 0.05 0.06 0.06 0.06 0.06 0.08 0.10 0.12 0.14 0.17 0.18 0.21 0.30 0.33 0.34 0.37 0.49 0.56
0.07 0.08 0.24 0.27 0.10 0.17 0.26 0.31 0.13 0.14 0.16 0.11 0.07 0.08 0.11 0.10 0.06 0.05 0.03 0.02 0.02 0.02 0.01 0.01 0.00 0.01 0.01 0.01 0.01 0.01 0.00 0.00 0.01 0.02 0.03 0.05 0.08 0.11 0.17 0.24 0.31 0.39 0.41 0.38
0.02 0.04 0.07 0.05 0.05 0.10 0.25 0.28 0.07 0.04 0.03 0.01 0.01 0.01 0.05 0.10 0.06 0.03 0.01 0.00 0.00 0.00 0.00 0.00 0.00 0.00 0.00 0.00 0.01 0.01 0.00 0.00 0.00 0.00 0.00 0.01 0.02 0.03 0.06 0.11 0.15 0.18 0.19 0.23
0.01 0.02 0.03 0.01 0.05 0.11 0.11 0.05 0.02 0.01 0.01 0.00 0.00 0.00 0.02 0.05 0.03 0.02 0.01 0.00 0.00 0.01 0.00 0.00 0.00 0.00 0.00 0.00 0.00 0.01 0.00 0.00 0.01 0.01 0.00 0.01 0.02 0.02 0.02 0.04 0.07 0.10 0.13 0.17
0.01 0.02 0.02 0.01 0.03 0.03 0.02 0.01 0.00 0.00 0.00 0.00 0.00 0.00 0.00 0.01 0.02 0.01 0.00 0.00 0.00 0.01 0.01 0.00 0.00 0.00 0.00 0.00 0.00 0.00 0.00 0.00 0.00 0.01 0.01 0.01 0.01 0.02 0.02 0.03 0.06 0.08 0.12 0.19
0.01 0.01 0.00 0.00 0.01 0.00 0.01 0.01 0.00 0.00 0.00 0.00 0.00 0.00 0.00 0.00 0.01 0.01 0.00 0.00 0.00 0.00 0.01 0.01 0.00 0.00 0.00 0.00 0.00 0.00 0.00 0.00 0.00 0.01 0.01 0.01 0.02 0.02 0.03 0.03 0.06 0.10 0.17 0.23
0.01 0.00 0.00 0.00 0.00 0.00 0.00 0.00 0.00 0.00 0.00 0.00 0.00 0.00 0.00 0.00 0.01 0.00 0.00 0.00 0.00 0.00 0.01 0.00 0.00 0.00 0.00 0.00 0.00 0.00 0.00 0.00 0.01 0.01 0.02 0.02 0.02 0.02 0.03 0.03 0.06 0.12 0.16 0.19
0.00 0.00 0.00 0.00 0.00 0.00 0.01 0.00 0.00 0.00 0.00 0.00 0.00 0.00 0.00 0.00 0.00 0.00 0.00 0.00 0.00 0.00 0.00 0.01 0.00 0.00 0.00 0.00 0.00 0.00 0.00 0.00 0.00 0.01 0.02 0.03 0.04 0.03 0.02 0.02 0.03 0.05 0.07 0.10
0.00 0.00 0.00 0.00 0.00 0.01 0.02 0.00 0.00 0.00 0.00 0.00 0.00 0.00 0.00 0.00 0.00 0.00 0.00 0.00 0.00 0.00 0.00 0.00 0.00 0.00 0.00 0.00 0.00 0.00 0.00 0.00 0.00 0.01 0.02 0.03 0.05 0.09 0.10 0.07 0.03 0.03 0.04 0.07
0.00 0.00 0.00 0.00 0.00 0.00 0.01 0.00 0.00 0.00 0.00 0.00 0.00 0.00 0.00 0.00 0.00 0.00 0.00 0.00 0.00 0.00 0.00 0.00 0.00 0.00 0.00 0.00 0.00 0.00 0.00 0.01 0.01 0.02 0.03 0.03 0.04 0.09 0.19 0.25 0.19 0.09 0.04 0.05
0.00 0.00 0.00 0.00 0.00 0.00 0.00 0.00 0.00 0.00 0.00 0.00 0.00 0.00 0.00 0.00 0.00 0.00 0.00 0.00 0.00 0.00 0.00 0.00 0.00 0.00 0.00 0.00 0.00 0.00 0.01 0.01 0.04 0.06 0.04 0.03 0.05 0.12 0.18 0.11 0.10 0.12 0.11 0.07
0.00 0.00 0.00 0.00 0.00 0.00 0.00 0.00 0.00 0.00 0.00 0.00 0.00 0.00 0.00 0.00 0.00 0.00 0.00 0.00 0.00 0.00 0.00 0.00 0.01 0.00 0.00 0.00 0.00 0.00 0.00 0.01 0.03 0.08 0.09 0.05 0.06 0.11 0.09 0.08 0.10 0.12 0.13 0.11
0.00 0.00 0.00 0.00 0.00 0.00 0.00 0.00 0.00 0.00 0.00 0.00 0.00 0.00 0.00 0.00 0.00 0.00 0.00 0.00 0.00 0.00 0.00 0.00 0.00 0.00 0.00 0.00 0.00 0.00 0.00 0.01 0.02 0.05 0.08 0.05 0.06 0.07 0.06 0.07 0.09 0.11 0.10 0.10
0.01 0.01 0.01 0.01 0.00 0.00 0.00 0.00 0.00 0.00 0.00 0.00 0.00 0.00 0.00 0.00 0.00 0.00 0.00 0.00 0.00 0.00 0.00 0.00 0.00 0.00 0.00 0.00 0.01 0.01 0.01 0.01 0.02 0.05 0.06 0.04 0.04 0.06 0.08 0.07 0.07 0.09 0.10 0.10
0.02 0.01 0.01 0.01 0.01 0.00 0.00 0.00 0.00 0.00 0.00 0.00 0.00 0.00 0.00 0.00 0.00 0.00 0.00 0.00 0.00 0.00 0.00 0.00 0.00 0.00 0.00 0.01 0.02 0.02 0.03 0.03 0.03 0.05 0.06 0.05 0.04 0.05 0.09 0.11 0.09 0.09 0.11 0.10
0.02 0.02 0.01 0.01 0.00 0.00 0.00 0.00 0.00 0.00 0.00 0.00 0.00 0.00 0.00 0.00 0.00 0.00 0.00 0.00 0.00 0.00 0.00 0.00 0.01 0.01 0.01 0.01 0.02 0.03 0.03 0.03 0.03 0.05 0.06 0.06 0.06 0.06 0.07 0.07 0.09 0.12 0.13 0.12
0.03 0.02 0.02 0.01 0.01 0.00 0.00 0.00 0.00 0.00 0.00 0.00 0.00 0.00 0.00 0.00 0.00 0.01 0.01 0.01 0.01 0.01 0.01 0.02 0.02 0.02 0.02 0.04 0.05 0.04 0.04 0.04 0.05 0.06 0.08 0.08 0.08 0.09 0.08 0.08 0.11 0.14 0.12 0.12
0.02 0.02 0.02 0.01 0.01 0.01 0.00 0.01 0.01 0.01 0.00 0.00 0.00 0.00 0.01 0.01 0.01 0.01 0.02 0.02 0.02 0.03 0.04 0.04 0.04 0.05 0.07 0.09 0.07 0.06 0.06 0.06 0.07 0.08 0.09 0.10 0.11 0.12 0.12 0.12 0.13 0.13 0.12 0.14
0.02 0.01 0.01 0.01 0.01 0.00 0.00 0.01 0.01 0.01 0.01 0.01 0.01 0.01 0.01 0.01 0.01 0.02 0.02 0.03 0.04 0.05 0.06 0.06 0.07 0.09 0.12 0.09 0.07 0.08 0.08 0.08 0.08 0.09 0.11 0.14 0.15 0.16 0.17 0.17 0.16 0.15 0.15 0.17
0.02 0.02 0.02 0.02 0.01 0.01 0.01 0.01 0.01 0.01 0.01 0.01 0.01 0.01 0.02 0.02 0.02 0.02 0.02 0.03 0.04 0.06 0.07 0.08 0.10 0.13 0.14 0.10 0.09 0.09 0.09 0.10 0.09 0.10 0.12 0.16 0.18 0.19 0.18 0.18 0.18 0.18 0.18 0.20
0.02 0.02 0.02 0.02 0.02 0.02 0.02 0.01 0.01 0.01 0.02 0.02 0.02 0.03 0.03 0.03 0.04 0.05 0.05 0.06 0.06 0.07 0.08 0.09 0.11 0.12 0.11 0.11 0.11 0.11 0.12 0.12 0.13 0.14 0.15 0.16 0.18 0.20 0.20 0.21 0.22 0.23 0.22 0.22
0.03 0.03 0.03 0.03 0.03 0.03 0.02 0.02 0.02 0.03 0.03 0.04 0.04 0.05 0.05 0.05 0.05 0.05 0.07 0.09 0.10 0.11 0.11 0.13 0.14 0.15 0.14 0.13 0.13 0.14 0.14 0.15 0.16 0.17 0.18 0.20 0.20 0.21 0.22 0.23 0.23 0.24 0.26 0.27
0.06 0.05 0.05 0.05 0.05 0.05 0.05 0.05 0.05 0.04 0.04 0.04 0.04 0.05 0.06 0.08 0.09 0.08 0.09 0.11 0.13 0.16 0.15 0.16 0.17 0.20 0.21 0.22 0.22 0.21 0.19 0.18 0.19 0.20 0.22 0.23 0.25 0.26 0.26 0.25 0.25 0.25 0.27 0.27